Regional Weather Roundup
Issued by NWS Northern Indiana

Home | Current Version | Previous Version | Graphics & Text | Print | Product List | Glossary On
Versions: 1 2 3 4 5 6 7 8 9 10 11 12 13 14 15 16 17 18 19 20 21 22 23 24 25 26 27 28 29 30 31 32 33 34 35 36 37 38 39 40 41 42 43 44 45 46 47 48 49 50
000
ASUS43 KIWX 301000
RWRIWX

KIWX WEATHER ROUNDUP
NATIONAL WEATHER SERVICE NORTHERN INDIANA
600 AM EDT THU MAR 30 2017

NOTE: "FAIR" INDICATES FEW OR NO CLOUDS BELOW 12,000 FEET WITH NO
SIGNIFICANT WEATHER AND/OR OBSTRUCTIONS TO VISIBILITY.

* THESE STATIONS ARE NOT UNDER NWS QUALITY CONTROL. THEY ALSO MAY NOT
  REPORT WEATHER SUCH AS PRECIPITATION OR FOG.

INZ001>027-301100-
NORTHERN INDIANA

CITY           SKY/WX    TMP DP  RH WIND       PRES   REMARKS
GARY*          LGT RAIN  43  41  93 E17G29    29.85F
KNOX*          CLOUDY    41  28  60 E12       29.89S
SOUTH BEND     LGT RAIN  40  37  89 E14G24    29.92F
GOSHEN         LGT RAIN  42  35  76 NE12      29.93R
MONTICELLO*    LGT RAIN  46  38  73 E9        29.81S
ANGOLA*        CLOUDY    39  36  87 E22       29.88F
FORT WAYNE     CLOUDY    42  36  79 E21G28    29.88F THUNDER
PERU/GRISSOM   CLOUDY    45  39  78 E17       29.81F

$$
INZ028>050-301100-
CENTRAL INDIANA

CITY           SKY/WX    TMP DP  RH WIND       PRES   REMARKS
LAFAYETTE      LGT RAIN  48  43  82 E13       29.78F
KOKOMO*        LGT RAIN  45  39  79 E14       29.83F
MUNCIE*        CLOUDY    47  40  76 E15       29.83F
INDIANAPOLIS   CLOUDY    53  45  74 E12       29.79F

$$
MIZ043>046-050>051-056>058-064>065-071>073-077>080-301100-
SOUTHWEST LOWER MICHIGAN

CITY           SKY/WX    TMP DP  RH WIND       PRES   REMARKS
BATTLE CREEK   HVY RAIN  40  35  83 E13       29.97F
BENTON HARBOR  TSTM      41  37  86 E18G28    29.93S FOG
COLDWATER*     LGT RAIN  42  33  70 E13G23    29.95R
HILLSDALE*     LGT RAIN  37  32  81 E20G32    29.93F
HOLLAND        RAIN      38  32  79 E10       30.00R
GRAND RAPIDS   LGT RAIN  37  34  89 E16       30.00F
KALAMAZOO      RAIN      40  35  83 E8        29.99R
STURGIS*       MIX PCPN  40  36  86 E9        29.98R
THREE RIVERS*  LGT SNOW  40  35  82 NE8       29.98R

$$
OHZ001>008-015>018-024>025-301100-
NORTHWEST OHIO

CITY           SKY/WX    TMP DP  RH WIND       PRES   REMARKS
DEFIANCE       CLOUDY    41  34  76 E16       29.93F
FINDLAY        CLOUDY    43  36  76 E15       29.94F
TOLEDO EXPRESS CLOUDY    41  34  76 E18G25    29.97F
TOLEDO METCALF CLOUDY    42  35  76 E20G25    30.00F
LIMA           CLOUDY    44  35  70 E22G29    29.90F

$$
AND FOR LAKE MICHIGAN COASTAL AND OPEN LAKE BUOY OBSERVATIONS

STATION/POSITION TEMP    WIND        PRES    VSBY  WAVE
                 AIR SEA DIR/SP/G                  HT/PER
                 (F)     (DEG/KT/KT) (MB)    (MI)  (FT/S)
CALUMET HARBOR    41      80/ 20/ 29 1010.9F
MICHIGAN CITY     41      70/ 20/ 22   N/A
BURNS HARBOR      42      90/ 14/ 21 1011.9F
SAINT JOSEPH      41      90/  5/ 13 1013.5

$$
&&



USA.gov is the U.S. government's official web portal to all federal, state and local government web resources and services.